Regional Weather Roundup
Issued by NWS

Home | Current Version | Previous Version | Graphics & Text | Print | Product List | Glossary On
Versions: 1 2 3 4 5 6 7 8 9 10 11 12 13 14 15 16 17 18 19 20 21 22 23 24 25 26 27 28 29 30 31 32 33 34 35 36 37 38 39 40 41 42 43 44 45 46 47 48 49 50
000
ASUS43 KMKX 011821
RWRWI

WISCONSIN REGIONAL WEATHER ROUNDUP
NATIONAL WEATHER SERVICE MILWAUKEE/SULLIVAN WI
100 PM CDT WED JUL 01 2015

NOTE: "FAIR" INDICATES FEW OR NO CLOUDS BELOW 12,000 FEET WITH NO
SIGNIFICANT WEATHER AND/OR OBSTRUCTIONS TO VISIBILITY.

WIZ001-002-006>008-014>016-023>028-011900-
NORTHWEST WISCONSIN

CITY           SKY/WX    TMP DP  RH WIND       PRES   REMARKS
SUPERIOR ARPT  FAIR      68  57  67 E5        30.01F
6HR MIN TEMP:  48; 6HR MAX TEMP:  68;

ASHLAND        FAIR      68  51  54 CALM      30.03S
6HR MIN TEMP:  47; 6HR MAX TEMP:  69;

HAYWARD        FAIR      69  48  47 N6        30.03S
6HR MIN TEMP:  46; 6HR MAX TEMP:  69;

SIREN          FAIR      70  47  44 CALM      30.02F
6HR MIN TEMP:  50; 6HR MAX TEMP:  71;

CUMBERLAND     FAIR      64  45  48 E5        30.03S
RICE LAKE      FAIR      67  47  48 CALM      30.04S
6HR MIN TEMP:  50; 6HR MAX TEMP:  68;

CHETEK         FAIR      66  48  52 E5        30.03S
6HR MIN TEMP:  51; 6HR MAX TEMP:  67;

LADYSMITH      FAIR      67  48  49 CALM      30.04S
6HR MIN TEMP:  48; 6HR MAX TEMP:  67;

EAU CLAIRE     FAIR      67  45  45 MISG      30.01F
6HR MIN TEMP:  50; 6HR MAX TEMP:  69;

MENOMONIE      FAIR      68  45  43 NE5       30.03S
6HR MIN TEMP:  52; 6HR MAX TEMP:  68;

NEW RICHMOND   FAIR      69  46  44 E6        30.02S
6HR MIN TEMP:  53; 6HR MAX TEMP:  69;

OSCEOLA        FAIR      70  49  47 SE3       30.04S
6HR MIN TEMP:  55; 6HR MAX TEMP:  70;

$$

WIZ003>005-009-010-017-018-011900-
NORTH CENTRAL WISCONSIN

CITY           SKY/WX    TMP DP  RH WIND       PRES   REMARKS
MANITOWISH WTR FAIR      63  45  50 CALM      30.03S
6HR MIN TEMP:  45; 6HR MAX TEMP:  64;

ARBOR VITAE    SUNNY     64  43  45 NE3       30.03S
6HR MIN TEMP:  47; 6HR MAX TEMP:  64;

WOODRUFF       SUNNY     64  43  45 NE3       30.03S
6HR MIN TEMP:  47; 6HR MAX TEMP:  64;

RHINELANDER    SUNNY     65  43  44 VRB5      30.03S
6HR MIN TEMP:  47; 6HR MAX TEMP:  65;

EAGLE RIVER    MOSUNNY   64  40  42 NE8       30.02S
6HR MIN TEMP:  44; 6HR MAX TEMP:  64;

LAND O LAKES   FAIR      64  43  46 CALM      30.04S
6HR MIN TEMP:  46; 6HR MAX TEMP:  64;

PHILLIPS       FAIR      66  47  49 NE9G16    30.02S
6HR MIN TEMP:  43; 6HR MAX TEMP:  66;

TOMAHAWK       SUNNY     65  45  48 N5        30.03S
6HR MIN TEMP:  41; 6HR MAX TEMP:  65;

MEDFORD        FAIR      66  44  43 N7        30.02S
6HR MIN TEMP:  46; 6HR MAX TEMP:  67;

MERRILL        SUNNY     66  46  47 N7        30.01F
6HR MIN TEMP:  46; 6HR MAX TEMP:  66;

$$

WIZ029-030-035-036-043>047-011900-
CENTRAL WISCONSIN

CITY           SKY/WX    TMP DP  RH WIND       PRES   REMARKS
WAUSAU         SUNNY     68  43  40 N7        29.99F
6HR MIN TEMP:  49; 6HR MAX TEMP:  68;

MOSINEE        SUNNY     66  46  48 N7        30.01F
MARSHFIELD     FAIR      66  44  45 N5        30.02S
6HR MIN TEMP:  50; 6HR MAX TEMP:  67;

STEVENS POINT  FAIR      65  41  42 N3        30.01S
6HR MIN TEMP:  46; 6HR MAX TEMP:  65;

WAUPACA        PTSUNNY   69  46  42 NE9       30.00S
6HR MIN TEMP:  52; 6HR MAX TEMP:  69;

WAUTOMA        SUNNY     68  45  43 VRB3      30.01R
6HR MIN TEMP:  52; 6HR MAX TEMP:  69; 6HR PCP:  0.05;

WISC RAPIDS    FAIR      68  42  38 NE6       30.02S
6HR MIN TEMP:  52; 6HR MAX TEMP:  68;

CAMP DOUGLAS   PTSUNNY   66  50  55 N7        30.00F
$$

WIZ011>013-019>022-031-037>040-048>050-011900-
NORTHEAST WISCONSIN

CITY           SKY/WX    TMP DP  RH WIND       PRES   REMARKS
ANTIGO         MOSUNNY   65  44  47 N8        30.02S
SHAWANO        MOSUNNY   69  47  45 E6        30.00S
6HR MIN TEMP:  51; 6HR MAX TEMP:  69;

OCONTO         CLOUDY    59  50  71 CALM      30.00S
6HR MIN TEMP:  48; 6HR MAX TEMP:  60;

STURGEON BAY   CLOUDY    57  48  72 NW7       30.03R
6HR MIN TEMP:  52; 6HR MAX TEMP:  57;

GREEN BAY      PTSUNNY   63  51  65 NE8       30.00F
6HR MIN TEMP:  51; 6HR MAX TEMP:  64;

MANITOWOC      CLOUDY    58  52  80 MISG      30.01S
6HR MIN TEMP:  54; 6HR MAX TEMP:  58;

APPLETON       MOSUNNY   63  48  59 N9        30.00S
CLINTONVILLE   PTSUNNY   66  45  45 NE6G16    29.99F
OSHKOSH        PTSUNNY   64  51  62 CALM      29.99S
6HR MIN TEMP:  53; 6HR MAX TEMP:  65;

$$

WIZ032>034-041-042-053>061-011900-
SOUTHWEST WISCONSIN

CITY           SKY/WX    TMP DP  RH WIND       PRES   REMARKS
LA CROSSE      FAIR      69  49  48 CALM      30.00F
6HR MIN TEMP:  56; 6HR MAX TEMP:  69;

SPARTA         FAIR      68  43  40 NE6       30.02F
6HR MIN TEMP:  45; 6HR MAX TEMP:  68;

VIROQUA        FAIR      66  48  51 E7        30.01S
6HR MIN TEMP:  53; 6HR MAX TEMP:  66;

BOSCOBEL       FAIR      67  50  54 NE3       29.99F
6HR MIN TEMP:  55; 6HR MAX TEMP:  71;

PRAIRIE DU CHI FAIR      65  47  51 CALM      29.99S
6HR MIN TEMP:  55; 6HR MAX TEMP:  67;

PLATTEVILLE    FAIR      67  55  63 NE8       29.98S
6HR MIN TEMP:  58; 6HR MAX TEMP:  68;

$$

WIZ056-057-062-063-064-067-068-011900-
SOUTH CENTRAL WISCONSIN

CITY           SKY/WX    TMP DP  RH WIND       PRES   REMARKS
REEDSBURG      FAIR      66  49  54 N8        29.99F
6HR MIN TEMP:  53; 6HR MAX TEMP:  66;

BARABOO/DELLS  FAIR      67  43  42 NE5       30.00S
6HR MIN TEMP:  52; 6HR MAX TEMP:  67;

LONE ROCK      FAIR      68  47  46 NE10      29.99F
6HR MIN TEMP:  56; 6HR MAX TEMP:  69;

MINERAL POINT  FAIR      68  45  42 N6        29.99S
MADISON        PTSUNNY   67  47  48 N9        29.98F
6HR MIN TEMP:  56; 6HR MAX TEMP:  69;

MIDDLETON      FAIR      69  45  42 N8        30.00S
6HR MIN TEMP:  57; 6HR MAX TEMP:  69;

WATERTOWN      MOSUNNY   66  52  60 NW9       29.98S
6HR MIN TEMP:  53; 6HR MAX TEMP:  68;

MONROE         FAIR      68  54  60 N9        29.97F
JANESVILLE     MOSUNNY   70  48  46 NW8       29.97F
$$

WIZ051-052-058>065-066-070>072-011900-
SOUTHEAST WISCONSIN

CITY           SKY/WX    TMP DP  RH WIND       PRES   REMARKS
MILWAUKEE      PTSUNNY   62  50  64 E13       29.99R
6HR MIN TEMP:  55; 6HR MAX TEMP:  64;

WAUKESHA       MOSUNNY   66  50  55 N6        29.99S
MILWAUKEE/TIMM PTSUNNY   63  48  59 E8        29.99S
RACINE         SUNNY     62  50  64 E13       30.00S
6HR MIN TEMP:  55; 6HR MAX TEMP:  64;

BURLINGTON     SUNNY     66  49  53 CALM      29.97S
6HR MIN TEMP:  53; 6HR MAX TEMP:  67;

KENOSHA        SUNNY     65  53  65 E10       29.99S
6HR MIN TEMP:  56; 6HR MAX TEMP:  66;

FOND DU LAC    PTSUNNY   66  53  63 NE8       30.00R
6HR MIN TEMP:  53; 6HR MAX TEMP:  66;

SHEBOYGAN      CLOUDY    60  52  74 VRB7      30.00R
6HR MIN TEMP:  52; 6HR MAX TEMP:  62;

WEST BEND      CLOUDY    63  50  63 E3        29.99S
JUNEAU         PTSUNNY   64  52  63 N3        30.00S
6HR MIN TEMP:  52; 6HR MAX TEMP:  65;

$$

LSZ147-162-011900-
LAKE SUPERIOR

STATION/POSITION TIME  TEMP    WIND        PRES    WAVE
                       AIR SEA DIR/SP/G            HT/PER
                 (UTC) (F)     (DEG/KT/KT) (MB)    (FT/S)
W MID LAKE BUOY  1750   45 39  170/  6/  6 1017.7F   1
DEVILS ISLAND    1800   60      90/  2/  3 1017.2F
SAXON HARBOR     1700   60        CALM     1017.3R
$$

LMZ867-665-643>646-011900-
LAKE MICHIGAN

STATION/POSITION TIME  TEMP    WIND        PRES    WAVE
                       AIR SEA DIR/SP/G            HT/PER
                 (UTC) (F)     (DEG/KT/KT) (MB)    (FT/S)


USA.gov is the U.S. government's official web portal to all federal, state and local government web resources and services.